Regional Weather Roundup
Issued by NWS

Home | Current Version | Previous Version | Text Only | Print | Product List | Glossary Off
Versions: 1 2 3 4 5 6 7 8 9 10 11 12 13 14 15 16 17 18 19 20 21 22 23 24 25 26 27 28 29 30 31 32 33 34 35 36 37 38 39 40 41 42 43 44 45 46 47 48 49 50

033
ASUS43 KOAX 170110
RWRNE

WEATHER ROUNDUP FOR NEBRASKA
NATIONAL WEATHER SERVICE OMAHA NE
800 PM CDT MON OCT 16 2017

NOTES: SATELLITE DATA IS BEING USED TO AUGMENT CLOUD COVER ABOVE
       12000 FEET.
       "FAIR" INDICATES FEW OR NO CLOUDS BELOW 12,000 FEET WITH NO
       SIGNIFICANT WEATHER AND/OR OBSTRUCTIONS TO VISIBILITY.


NEZ001>004-019>022-054>056-170200-
NEBRASKA PANHANDLE

CITY           SKY/WX    TMP DP  RH WIND       PRES   REMARKS
SCOTTSBLUFF    CLEAR     55  23  28 N9        30.15R
ALLIANCE       CLOUDY    54  27  35 N9        30.14R
CHADRON        CLEAR     50  29  44 CALM      30.12R
GORDON         FAIR      51  32  47 CALM      30.12R
KIMBALL        CLOUDY    58  20  23 N5        30.20R
SIDNEY         CLOUDY    57  20  23 N7        30.17R
$$

NEZ057>060-069>072-079>082-170200-
SOUTHWEST NEBRASKA

CITY           SKY/WX    TMP DP  RH WIND       PRES   REMARKS
NORTH PLATTE   MOCLDY    60  38  43 CALM      30.07R
IMPERIAL       CLOUDY    61  27  27 NW5       30.10R
LEXINGTON      CLEAR     65  35  33 S10       30.07S
MCCOOK         CLOUDY    65  37  35 S10       30.09R
OGALLALA       CLOUDY    61  30  30 NW7       30.11R
$$

NEZ005>010-023>029-035>040-094-170200-
NORTH CENTRAL NEBRASKA

CITY           SKY/WX    TMP DP  RH WIND       PRES   REMARKS
VALENTINE      CLEAR     55  33  43 CALM      30.07R
AINSWORTH      CLEAR     56  34  43 N6        30.06R
BROKEN BOW     CLEAR     56  40  55 N3        30.05R
O`NEILL        PTCLDY    59  42  52 CALM      30.04S
ORD            CLEAR     55  39  54 S10       30.04R HAZE
THEDFORD       CLOUDY    56  32  39 SW5       30.07S
$$

NEZ041-046>049-061>064-073>077-083>087-170200-
SOUTH CENTRAL NEBRASKA

CITY           SKY/WX    TMP DP  RH WIND       PRES   REMARKS
GRAND ISLAND   CLEAR     60  39  45 S9        30.10R
AURORA         CLEAR     58  36  42 S7        30.11R
HASTINGS       CLEAR     61  34  36 S8        30.11R
HEBRON         CLEAR     60  39  46 S6        30.14R
HOLDREGE       CLOUDY    64  37  37 S14       30.09R
KEARNEY        CLEAR     61  38  42 S10       30.10R
YORK           CLEAR     59  39  47 S9        30.11S
$$

NEZ011>018-030>034-042>045-170200-
NORTHEAST NEBRASKA

CITY           SKY/WX    TMP DP  RH WIND       PRES   REMARKS
NORFOLK        CLEAR     62  38  40 S10       30.05S
ALBION         PTCLDY    59  39  46 SE5       30.07R
BLAIR          CLEAR     63  41  43 S12       30.10S
COLUMBUS       CLEAR     63  38  39 S8        30.09S
FREMONT        CLEAR     64  38  38 S8        30.11R
TEKAMAH        CLEAR     56  32  40 S8        30.08S
WAYNE          CLEAR     56  36  47 S7        30.05S
$$

NEZ050>053-065>068-078-088>093-170200-
SOUTHEAST NEBRASKA

CITY           SKY/WX    TMP DP  RH WIND       PRES   REMARKS
LINCOLN        CLEAR     56  40  55 S10       30.13S
OMAHA EPPLEY   PTCLDY    64  40  41 S10       30.11S
BEATRICE       CLEAR     61  41  48 S9        30.15S
FALLS CITY     CLEAR     60  39  45 S8        30.18R
NEBRASKA CITY  CLEAR     58  42  53 S10       30.15F
PLATTSMOUTH    CLEAR     61  40  46 S10       30.14S
$$

NEZ044-045-051>053-067-170200-
OMAHA AREA

CITY           SKY/WX    TMP DP  RH WIND       PRES   REMARKS
OMAHA EPPLEY   PTCLDY    64  40  41 S10       30.11S
BLAIR          CLEAR     63  41  43 S12       30.10S
FREMONT        CLEAR     64  38  38 S8        30.11R
MILLARD        CLEAR     63  42  46 SE6       30.12S
OFFUTT AFB     CLEAR     60  41  50 S8        30.12S
PLATTSMOUTH    CLEAR     61  40  46 S10       30.14S
WAHOO          FAIR      57  40  52 S9        30.10S
$$




USA.gov is the U.S. government's official web portal to all federal, state and local government web resources and services.